CEB246 RPLL-RPVA

Flight info

Callsign CEB246
Flight time 0h 59m
Altitude 33000
Route IPATA2R IPATA B462 ARREX ARREX2R
Aircraft A320/M-SDE3FGHIRWY/LB1

Departure

Time 2026-04-23 16:24
Airport Ninoy Aquino International Airport (RPLL)

Arrival

Time 2026-04-23 17:24
Airport Daniel Z. Romualdez Airport (RPVA)
Time Latitude Longitude Altitude Speed Heading
2026-04-23 15:34 14.51712 121.01472 64 ft 0 kts 44°
2026-04-23 16:11 14.51701 121.01461 63 ft 4 kts 46°
2026-04-23 16:11 14.51683 121.01440 62 ft 4 kts 50°
2026-04-23 16:11 14.51666 121.01418 62 ft 4 kts 59°
2026-04-23 16:11 14.51656 121.01394 61 ft 4 kts 92°
2026-04-23 16:12 14.51660 121.01380 64 ft 0 kts 135°
2026-04-23 16:14 14.51659 121.01380 64 ft 1 kts 135°
2026-04-23 16:15 14.51637 121.01403 63 ft 8 kts 135°
2026-04-23 16:15 14.51592 121.01450 63 ft 10 kts 135°
2026-04-23 16:15 14.51537 121.01507 64 ft 12 kts 135°
2026-04-23 16:15 14.51474 121.01571 67 ft 14 kts 134°
2026-04-23 16:16 14.51403 121.01644 68 ft 15 kts 135°
2026-04-23 16:16 14.51326 121.01724 64 ft 16 kts 134°
2026-04-23 16:16 14.51241 121.01811 62 ft 18 kts 135°
2026-04-23 16:16 14.51151 121.01903 67 ft 19 kts 135°
2026-04-23 16:17 14.51056 121.01988 62 ft 16 kts 174°
2026-04-23 16:17 14.50995 121.01906 67 ft 15 kts 239°
2026-04-23 16:17 14.50941 121.01808 61 ft 16 kts 241°
2026-04-23 16:17 14.50881 121.01701 65 ft 18 kts 240°
2026-04-23 16:18 14.50820 121.01589 63 ft 18 kts 242°
2026-04-23 16:18 14.50756 121.01476 64 ft 19 kts 240°
2026-04-23 16:18 14.50692 121.01359 60 ft 19 kts 241°
2026-04-23 16:18 14.50628 121.01242 63 ft 19 kts 240°
2026-04-23 16:19 14.50559 121.01122 64 ft 14 kts 240°
2026-04-23 16:19 14.50511 121.01035 59 ft 13 kts 240°
2026-04-23 16:19 14.50467 121.00956 67 ft 12 kts 240°
2026-04-23 16:19 14.50427 121.00886 59 ft 11 kts 239°
2026-04-23 16:20 14.50390 121.00818 63 ft 14 kts 240°
2026-04-23 16:20 14.50323 121.00701 61 ft 20 kts 239°
2026-04-23 16:20 14.50250 121.00568 59 ft 22 kts 239°
2026-04-23 16:20 14.50171 121.00424 65 ft 24 kts 240°
2026-04-23 16:21 14.50086 121.00273 65 ft 25 kts 240°
2026-04-23 16:21 14.49996 121.00112 61 ft 26 kts 240°
2026-04-23 16:21 14.49925 120.99986 64 ft 16 kts 238°
2026-04-23 16:21 14.49883 120.99965 69 ft 0 kts 158°
2026-04-23 16:22 14.49882 120.99966 69 ft 0 kts 158°
2026-04-23 16:22 14.49860 120.99975 69 ft 4 kts 156°
2026-04-23 16:23 14.49830 120.99993 66 ft 14 kts 143°
2026-04-23 16:23 14.49826 121.00082 67 ft 0 kts 60°
2026-04-23 16:23 14.49848 121.00120 64 ft 26 kts 60°
2026-04-23 16:24 14.49975 121.00349 61 ft 80 kts 60°
2026-04-23 16:24 14.50524 121.01330 67 ft 154 kts 61°
2026-04-23 16:24 14.51073 121.02365 552 ft 163 kts 61°
2026-04-23 16:24 14.51641 121.03381 1270 ft 164 kts 61°
2026-04-23 16:25 14.52028 121.04071 1746 ft 166 kts 60°
2026-04-23 16:25 14.52642 121.05169 2095 ft 188 kts 60°
2026-04-23 16:25 14.53339 121.06400 2385 ft 211 kts 60°
2026-04-23 16:25 14.54121 121.07768 2694 ft 236 kts 60°
2026-04-23 16:26 14.55013 121.09321 3132 ft 260 kts 61°
2026-04-23 16:26 14.55576 121.11108 3838 ft 268 kts 88°
2026-04-23 16:26 14.55259 121.12974 4705 ft 271 kts 115°
2026-04-23 16:26 14.54114 121.14511 5571 ft 275 kts 141°
2026-04-23 16:27 14.52539 121.15652 6442 ft 279 kts 146°
2026-04-23 16:27 14.50889 121.16737 7273 ft 282 kts 147°
2026-04-23 16:27 14.49222 121.17825 8121 ft 285 kts 147°
2026-04-23 16:27 14.47542 121.18929 8968 ft 288 kts 147°
2026-04-23 16:28 14.45847 121.20050 9801 ft 290 kts 147°
2026-04-23 16:28 14.44118 121.21197 10290 ft 305 kts 147°
2026-04-23 16:28 14.42265 121.22428 10527 ft 327 kts 147°
2026-04-23 16:28 14.40486 121.23941 11046 ft 336 kts 134°
2026-04-23 16:29 14.38851 121.25691 11724 ft 340 kts 134°
2026-04-23 16:29 14.37198 121.27459 12381 ft 345 kts 134°
2026-04-23 16:29 14.35519 121.29251 13021 ft 350 kts 134°
2026-04-23 16:29 14.33817 121.31067 13663 ft 354 kts 134°
2026-04-23 16:30 14.32095 121.32903 14236 ft 358 kts 134°
2026-04-23 16:30 14.30355 121.34758 14794 ft 361 kts 134°
2026-04-23 16:30 14.28601 121.36628 15356 ft 365 kts 134°
2026-04-23 16:30 14.26825 121.38520 15901 ft 368 kts 134°
2026-04-23 16:31 14.25037 121.40427 16444 ft 372 kts 134°
2026-04-23 16:31 14.23231 121.42356 16983 ft 376 kts 134°
2026-04-23 16:31 14.21407 121.44305 17519 ft 379 kts 134°
2026-04-23 16:31 14.19564 121.46272 18042 ft 383 kts 134°
2026-04-23 16:32 14.17699 121.48256 18516 ft 387 kts 134°
2026-04-23 16:32 14.15823 121.50246 18979 ft 389 kts 134°
2026-04-23 16:32 14.13929 121.52259 19455 ft 392 kts 135°
2026-04-23 16:32 14.12027 121.54282 19938 ft 394 kts 134°
2026-04-23 16:33 14.10145 121.56285 20416 ft 396 kts 135°
2026-04-23 16:33 14.08223 121.58334 20864 ft 398 kts 134°
2026-04-23 16:33 14.06298 121.60387 21310 ft 401 kts 135°
2026-04-23 16:33 14.04351 121.62460 21744 ft 403 kts 135°
2026-04-23 16:34 14.02393 121.64543 22180 ft 406 kts 135°
2026-04-23 16:34 14.00426 121.66635 22646 ft 407 kts 135°
2026-04-23 16:34 13.98451 121.68735 23109 ft 409 kts 135°
2026-04-23 16:34 13.96468 121.70847 23526 ft 412 kts 135°
2026-04-23 16:35 13.94468 121.72974 23880 ft 414 kts 135°
2026-04-23 16:35 13.92459 121.75109 24224 ft 416 kts 135°
2026-04-23 16:35 13.90436 121.77254 24583 ft 419 kts 135°
2026-04-23 16:35 13.88401 121.79412 24941 ft 421 kts 135°
2026-04-23 16:36 13.86363 121.81582 25280 ft 423 kts 134°
2026-04-23 16:36 13.84380 121.83832 25624 ft 426 kts 131°
2026-04-23 16:36 13.82459 121.86159 25967 ft 428 kts 130°
2026-04-23 16:36 13.80566 121.88540 26309 ft 430 kts 130°
2026-04-23 16:37 13.78681 121.90938 26641 ft 432 kts 130°
2026-04-23 16:37 13.76776 121.93343 26974 ft 434 kts 130°
2026-04-23 16:37 13.74850 121.95748 27299 ft 436 kts 130°
2026-04-23 16:37 13.72904 121.98148 27621 ft 439 kts 131°
2026-04-23 16:38 13.70931 122.00558 27952 ft 441 kts 131°
2026-04-23 16:38 13.68950 122.02970 28264 ft 443 kts 131°
2026-04-23 16:38 13.66958 122.05395 28585 ft 445 kts 131°
2026-04-23 16:38 13.64955 122.07835 28902 ft 447 kts 131°
2026-04-23 16:39 13.62950 122.10283 29188 ft 450 kts 131°
2026-04-23 16:39 13.60928 122.12752 29485 ft 452 kts 131°
2026-04-23 16:39 13.58900 122.15229 29778 ft 455 kts 131°
2026-04-23 16:39 13.56860 122.17723 30055 ft 457 kts 131°
2026-04-23 16:40 13.54810 122.20229 30291 ft 459 kts 131°
2026-04-23 16:40 13.52750 122.22746 30525 ft 461 kts 131°
2026-04-23 16:40 13.50684 122.25268 30758 ft 463 kts 131°
2026-04-23 16:40 13.48605 122.27807 30979 ft 465 kts 131°
2026-04-23 16:41 13.46522 122.30351 31194 ft 467 kts 131°
2026-04-23 16:41 13.44423 122.32913 31423 ft 469 kts 131°
2026-04-23 16:41 13.42354 122.35437 31733 ft 469 kts 131°
2026-04-23 16:41 13.40253 122.37995 32035 ft 468 kts 131°
2026-04-23 16:42 13.38149 122.40554 32351 ft 468 kts 131°
2026-04-23 16:42 13.36048 122.43111 32664 ft 468 kts 131°
2026-04-23 16:42 13.33951 122.45667 32874 ft 469 kts 131°
2026-04-23 16:42 13.31871 122.48206 32921 ft 458 kts 131°
2026-04-23 16:43 13.27822 122.53139 32916 ft 449 kts 131°
2026-04-23 16:43 13.23797 122.58023 32914 ft 448 kts 131°
2026-04-23 16:44 13.19780 122.62909 32916 ft 448 kts 131°
2026-04-23 16:44 13.15761 122.67796 32918 ft 448 kts 131°
2026-04-23 16:45 13.11742 122.72673 32915 ft 448 kts 131°
2026-04-23 16:45 13.07716 122.77551 32917 ft 448 kts 131°
2026-04-23 16:46 13.03698 122.82426 32919 ft 448 kts 131°
2026-04-23 16:46 12.99676 122.87312 32918 ft 448 kts 131°
2026-04-23 16:47 12.95655 122.92183 32914 ft 448 kts 131°
2026-04-23 16:47 12.91628 122.97057 32911 ft 448 kts 131°
2026-04-23 16:48 12.87604 123.01928 32909 ft 448 kts 131°
2026-04-23 16:48 12.83579 123.06797 32904 ft 447 kts 131°
2026-04-23 16:49 12.79550 123.11661 32906 ft 447 kts 131°
2026-04-23 16:49 12.75550 123.16492 32907 ft 448 kts 131°
2026-04-23 16:50 12.71501 123.21386 32906 ft 447 kts 131°
2026-04-23 16:50 12.67497 123.26218 32906 ft 448 kts 131°
2026-04-23 16:51 12.63446 123.31103 32695 ft 445 kts 131°
2026-04-23 16:51 12.61459 123.33508 32448 ft 441 kts 131°
2026-04-23 16:51 12.59719 123.35614 32233 ft 439 kts 131°
2026-04-23 16:53 12.57341 123.38484 31926 ft 436 kts 131°
2026-04-23 16:53 12.55377 123.40845 31693 ft 433 kts 131°
2026-04-23 16:53 12.53436 123.43177 31215 ft 430 kts 131°
2026-04-23 16:54 12.51504 123.45500 30694 ft 428 kts 131°
2026-04-23 16:54 12.49576 123.47819 30172 ft 426 kts 131°
2026-04-23 16:54 12.47657 123.50128 29609 ft 424 kts 131°
2026-04-23 16:54 12.45758 123.52415 29112 ft 419 kts 131°
2026-04-23 16:55 12.43882 123.54675 28629 ft 415 kts 131°
2026-04-23 16:55 12.42019 123.56915 28144 ft 411 kts 131°
2026-04-23 16:55 12.40179 123.59125 27682 ft 406 kts 131°
2026-04-23 16:55 12.38356 123.61312 27220 ft 402 kts 131°
2026-04-23 16:56 12.36553 123.63477 26764 ft 398 kts 131°
2026-04-23 16:56 12.34777 123.65636 26332 ft 394 kts 130°
2026-04-23 16:56 12.33042 123.67781 25899 ft 390 kts 130°
2026-04-23 16:56 12.31327 123.69919 25465 ft 387 kts 129°
2026-04-23 16:57 12.29628 123.72042 25001 ft 385 kts 129°
2026-04-23 16:57 12.27932 123.74152 24535 ft 383 kts 129°
2026-04-23 16:57 12.26242 123.76244 24072 ft 381 kts 129°
2026-04-23 16:57 12.24554 123.78327 23598 ft 380 kts 129°
2026-04-23 16:58 12.22870 123.80405 23059 ft 378 kts 129°
2026-04-23 16:58 12.21201 123.82465 22584 ft 375 kts 129°
2026-04-23 16:58 12.19541 123.84511 22113 ft 370 kts 129°
2026-04-23 16:58 12.17919 123.86508 21663 ft 361 kts 129°
2026-04-23 16:59 12.16329 123.88463 21202 ft 354 kts 129°
2026-04-23 16:59 12.14793 123.90352 20788 ft 346 kts 129°
2026-04-23 16:59 12.13253 123.92249 20359 ft 340 kts 129°
2026-04-23 16:59 12.11757 123.94092 19944 ft 334 kts 130°
2026-04-23 17:00 12.10306 123.95881 19534 ft 328 kts 130°
2026-04-23 17:00 12.08860 123.97661 19143 ft 324 kts 130°
2026-04-23 17:00 12.07418 123.99439 18754 ft 325 kts 130°
2026-04-23 17:00 12.05975 124.01217 18352 ft 326 kts 130°
2026-04-23 17:01 12.04523 124.03007 17919 ft 328 kts 130°
2026-04-23 17:01 12.03068 124.04797 17507 ft 328 kts 130°
2026-04-23 17:01 12.01613 124.06588 17113 ft 327 kts 130°
2026-04-23 17:01 12.00160 124.08374 16718 ft 327 kts 130°
2026-04-23 17:02 11.99198 124.09556 16459 ft 327 kts 130°
2026-04-23 17:02 11.97255 124.11946 15944 ft 327 kts 130°
2026-04-23 17:02 11.95799 124.13735 15552 ft 328 kts 130°
2026-04-23 17:02 11.94342 124.15525 15170 ft 328 kts 130°
2026-04-23 17:03 11.92885 124.17319 14780 ft 329 kts 130°
2026-04-23 17:03 11.91420 124.19120 14385 ft 329 kts 130°
2026-04-23 17:03 11.89955 124.20920 13992 ft 330 kts 130°
2026-04-23 17:03 11.88487 124.22728 13583 ft 331 kts 130°
2026-04-23 17:04 11.87016 124.24538 13162 ft 331 kts 130°
2026-04-23 17:04 11.85547 124.26344 12790 ft 329 kts 130°
2026-04-23 17:04 11.84102 124.28121 12645 ft 324 kts 130°
2026-04-23 17:04 11.82663 124.29888 12468 ft 323 kts 130°
2026-04-23 17:05 11.81226 124.31650 12283 ft 322 kts 130°
2026-04-23 17:05 11.79804 124.33396 12103 ft 319 kts 130°
2026-04-23 17:05 11.78380 124.35136 11919 ft 319 kts 130°
2026-04-23 17:05 11.76962 124.36870 11733 ft 318 kts 130°
2026-04-23 17:06 11.75551 124.38598 11548 ft 316 kts 130°
2026-04-23 17:06 11.74164 124.40296 11380 ft 315 kts 130°
2026-04-23 17:06 11.72765 124.42009 11199 ft 313 kts 130°
2026-04-23 17:06 11.71374 124.43716 11031 ft 312 kts 130°
2026-04-23 17:07 11.69990 124.45418 10889 ft 311 kts 130°
2026-04-23 17:07 11.68606 124.47116 10795 ft 311 kts 130°
2026-04-23 17:07 11.67227 124.48805 10630 ft 309 kts 130°
2026-04-23 17:07 11.65855 124.50482 10456 ft 307 kts 130°
2026-04-23 17:08 11.64492 124.52151 10277 ft 306 kts 130°
2026-04-23 17:08 11.63139 124.53806 10058 ft 300 kts 130°
2026-04-23 17:08 11.61821 124.55417 9898 ft 294 kts 130°
2026-04-23 17:08 11.60511 124.57020 9762 ft 294 kts 130°
2026-04-23 17:09 11.59206 124.58617 9581 ft 293 kts 130°
2026-04-23 17:09 11.57905 124.60213 9425 ft 293 kts 129°
2026-04-23 17:09 11.56607 124.61808 9250 ft 292 kts 130°
2026-04-23 17:09 11.55308 124.63396 9095 ft 291 kts 130°
2026-04-23 17:10 11.54449 124.64444 8987 ft 290 kts 130°
2026-04-23 17:10 11.52725 124.66551 8766 ft 288 kts 130°
2026-04-23 17:10 11.51445 124.68118 8596 ft 288 kts 130°
2026-04-23 17:10 11.50157 124.69638 8435 ft 286 kts 135°
2026-04-23 17:11 11.49130 124.70526 8320 ft 286 kts 144°
2026-04-23 17:11 11.46954 124.72028 8106 ft 286 kts 146°
2026-04-23 17:11 11.45315 124.73164 7948 ft 284 kts 145°
2026-04-23 17:11 11.43688 124.74294 7787 ft 283 kts 145°
2026-04-23 17:12 11.42588 124.75058 7680 ft 283 kts 145°
2026-04-23 17:12 11.40964 124.76187 7516 ft 282 kts 145°
2026-04-23 17:12 11.38814 124.77678 7305 ft 282 kts 145°
2026-04-23 17:12 11.37720 124.78436 7194 ft 281 kts 145°
2026-04-23 17:13 11.36106 124.79553 7032 ft 280 kts 145°
2026-04-23 17:13 11.34498 124.80667 6869 ft 279 kts 145°
2026-04-23 17:13 11.32896 124.81779 6714 ft 278 kts 145°
2026-04-23 17:13 11.31297 124.82890 6551 ft 277 kts 145°
2026-04-23 17:14 11.29709 124.83993 6400 ft 277 kts 145°
2026-04-23 17:14 11.28122 124.85091 6222 ft 271 kts 145°
2026-04-23 17:14 11.26597 124.86144 6083 ft 265 kts 146°
2026-04-23 17:14 11.24897 124.86943 6057 ft 274 kts 160°
2026-04-23 17:15 11.23073 124.87518 5991 ft 273 kts 162°
2026-04-23 17:15 11.21305 124.88044 5726 ft 257 kts 162°
2026-04-23 17:15 11.19638 124.88530 5274 ft 249 kts 162°
2026-04-23 17:15 11.17961 124.89011 4744 ft 246 kts 162°
2026-04-23 17:16 11.16345 124.89465 4204 ft 243 kts 162°
2026-04-23 17:16 11.14706 124.89921 3674 ft 240 kts 162°
2026-04-23 17:16 11.13140 124.90352 3363 ft 228 kts 162°
2026-04-23 17:16 11.11668 124.90753 3201 ft 212 kts 162°
2026-04-23 17:17 11.10264 124.91132 2844 ft 207 kts 162°
2026-04-23 17:17 11.08883 124.91500 2575 ft 202 kts 162°
2026-04-23 17:17 11.07498 124.91864 2560 ft 202 kts 162°
2026-04-23 17:17 11.06216 124.92330 2556 ft 193 kts 145°
2026-04-23 17:18 11.04908 124.94540 2562 ft 187 kts 104°
2026-04-23 17:18 11.04590 124.95817 2561 ft 186 kts 104°
2026-04-23 17:18 11.04269 124.97097 2562 ft 186 kts 104°
2026-04-23 17:19 11.03948 124.98375 2557 ft 187 kts 104°
2026-04-23 17:19 11.03830 124.99678 2558 ft 187 kts 80°
2026-04-23 17:19 11.04395 125.00869 2558 ft 191 kts 49°
2026-04-23 17:19 11.05524 125.01590 2434 ft 196 kts 17°
2026-04-23 17:20 11.06896 125.01731 2310 ft 199 kts
2026-04-23 17:20 11.09623 125.01900 2084 ft 189 kts
2026-04-23 17:21 11.12121 125.02061 1838 ft 171 kts
2026-04-23 17:21 11.13266 125.02136 1745 ft 158 kts
2026-04-23 17:21 11.15397 125.02276 1358 ft 148 kts
2026-04-23 17:22 11.15579 125.02289 1317 ft 147 kts
2026-04-23 17:22 11.17450 125.02414 915 ft 143 kts
2026-04-23 17:23 11.19552 125.02561 461 ft 154 kts
2026-04-23 17:23 11.20584 125.02629 235 ft 144 kts
2026-04-23 17:23 11.22355 125.02746 15 ft 88 kts
2026-04-23 17:24 11.22669 125.02768 14 ft 22 kts
2026-04-23 17:24 11.22762 125.02755 12 ft 10 kts 303°
2026-04-23 17:24 11.22726 125.02689 14 ft 0 kts 183°
2026-04-23 17:25 11.22706 125.02690 15 ft 6 kts 180°
2026-04-23 17:25 11.22671 125.02688 13 ft 4 kts 184°
2026-04-23 17:26 11.22624 125.02672 15 ft 2 kts 286°
2026-04-23 17:26 11.22639 125.02653 13 ft 1 kts 309°
2026-04-23 17:27 11.22640 125.02652 13 ft 0 kts 309°